Location: Rounton
(54.4000°N, 1.3500°W)
Time: 12:14:16
(UTC+00:00)

Vanguard 3 - All Passes

Search period start: 22 February 2024 00:00
Search period end: 03 March 2024 00:00
Orbit: 508 x 3239 km, 33.3° (Epoch: 22 February)

Date Brightness Start Highest point End Pass type
(mag) Time Alt. Az. Time Alt. Az. Time Alt. Az.
22 Feb - 00:36:30 10° WSW 00:49:31 29° SSW 00:58:35 10° SE visible
22 Feb - 02:53:11 10° WSW 03:00:08 16° SW 03:05:34 10° S night (unlit)
22 Feb - 19:00:16 10° SSE 19:07:02 13° SE 19:13:31 10° ESE visible
22 Feb - 21:04:56 10° SSW 21:19:06 26° SSE 21:30:49 10° ESE visible
22 Feb - 23:16:55 10° SW 23:31:43 32° S 23:42:28 10° SE visible
23 Feb - 01:32:03 10° WSW 01:43:21 24° SSW 01:51:25 10° SSE night (unlit)
23 Feb - 19:48:29 10° S 20:00:54 21° SSE 20:12:08 10° ESE visible
23 Feb - 21:58:03 10° SW 22:13:29 32° S 22:25:36 10° ESE visible
24 Feb - 00:11:49 10° WSW 00:25:56 30° SSW 00:35:59 10° SE visible
24 Feb - 02:28:37 10° WSW 02:36:46 17° SW 02:43:05 10° S night (unlit)
24 Feb - 18:34:34 10° SSE 18:42:58 14° SE 18:51:10 10° ESE visible
24 Feb - 20:40:13 10° SSW 20:55:05 28° SSE 21:07:54 10° ESE visible
24 Feb - 22:52:14 10° SW 23:07:55 34° S 23:19:43 10° SE visible
25 Feb - 01:07:25 10° WSW 01:19:48 25° SSW 01:28:48 10° SSE visible
25 Feb - 19:23:45 10° S 19:36:46 23° SSE 19:49:04 10° ESE visible
25 Feb - 21:33:28 10° SW 21:49:30 33° S 22:02:38 10° ESE visible
25 Feb - 23:47:11 10° WSW 00:02:11 32° SSW 00:13:14 10° SE visible
26 Feb - 02:04:02 10° WSW 02:13:14 18° SW 02:20:24 10° S night (unlit)
26 Feb - 18:09:29 10° SSE 18:18:50 16° SE 18:28:14 10° ESE visible
26 Feb - 20:15:44 10° SSW 20:30:56 30° SSE 20:44:44 10° ESE visible
26 Feb - 22:27:42 10° WSW 22:43:57 35° S 22:56:46 10° SE visible
27 Feb - 00:42:49 10° WSW 00:56:05 26° SSW 01:06:01 10° SSE visible
27 Feb - 18:59:18 10° SSW 19:12:34 24° SSE 19:25:43 10° ESE visible
27 Feb - 21:09:04 10° SW 21:25:22 35° S 21:39:30 10° ESE visible
27 Feb - 23:22:38 10° WSW 23:38:16 33° SSW 23:50:17 10° SE visible
28 Feb - 01:39:28 10° WSW 01:49:33 19° SW 01:57:31 10° S visible
28 Feb - 17:44:52 10° S 17:54:39 17° SE 18:04:53 10° ESE daylight
28 Feb - 19:51:28 10° SSW 20:06:43 31° SSE 20:21:21 10° ESE visible
28 Feb - 22:03:18 10° WSW 22:19:51 36° S 22:33:38 10° SE visible
29 Feb - 00:18:16 10° WSW 00:32:14 27° SSW 00:43:02 10° SSE visible
29 Feb - 02:40:22 10° WSW 02:42:30 10° SW 02:44:31 10° SW night (unlit)
29 Feb - 18:35:07 10° SSW 18:48:19 25° SSE 19:02:06 10° ESE visible
29 Feb - 20:44:52 10° SW 21:01:08 36° S 21:16:08 10° ESE visible
29 Feb - 22:58:14 10° WSW 23:14:12 33° SSW 23:27:09 10° SE visible
01 Mar - 01:14:59 10° WSW 01:25:43 19° SW 01:34:26 10° S visible
01 Mar - 17:20:37 10° S 17:30:28 18° SE 17:41:11 10° ESE daylight
01 Mar - 19:27:27 10° SW 19:42:25 32° SSE 19:57:44 10° ESE visible
01 Mar - 21:39:06 10° WSW 21:55:39 37° S 22:10:18 10° SE visible
01 Mar - 23:53:50 10° WSW 00:08:12 27° SSW 00:19:51 10° SSE visible
02 Mar - 02:15:49 10° WSW 02:18:41 11° SW 02:21:23 10° SW visible
02 Mar - 18:11:12 10° SSW 18:24:04 26° SSE 18:38:15 10° ESE visible
02 Mar - 20:20:52 10° SW 20:36:51 36° S 20:52:33 10° ESE visible
02 Mar - 22:33:58 10° WSW 22:50:02 34° SSW 23:03:49 10° SE visible
